Language: 


Des rapports , des résumés tant et plus, au choix de chacun....


Données Historiques de Météogheer
Journalier Rapport pour Décembre 22, 2017 Unitée:  Métrique    Impériale   Les deux
Suivant Jour »
Journalier Hebdomadaire Mensuel Annuel Sur mesure
  Max: Min: Moyenne:
Température: 11.3 °C 9.0 °C 9.9 °C
Point de rosée: 11.0 °C 9.0 °C 10 °C
Humidité: 98% 98% 98%
Vent: 14.0km/h 0.0km/h 1.4km/h
Rafales: 15.1km/h - -
Vent- - West
Pression: 1037.1 hPa 1032.1 hPa -
Pluie: 0.0 mm    
Historical Graphs
 
 
Données tabulaires pour Décembre 22, 2017
Heure Température Point de rosée Pression Vent Vent Rafales Humidité Pluie Taux (Horaire) Conditions
00:01 10.5 °C 11.0 °C 1034.1 hPa Calm   12.2 km/h 98% 0.0 mm
00:03 10.5 °C 11.0 °C 1034.1 hPa WSW 7.9 km/h 12.2 km/h 98% 0.0 mm
00:07 10.5 °C 11.0 °C 1034.1 hPa West 7.9 km/h 13.0 km/h 98% 0.0 mm
00:09 10.5 °C 11.0 °C 1034.1 hPa WSW 9.0 km/h 13.0 km/h 98% 0.0 mm
00:14 10.5 °C 11.0 °C 1034.1 hPa WSW 11.9 km/h 13.0 km/h 98% 0.0 mm
00:19 10.4 °C 10.0 °C 1034.1 hPa WSW 10.8 km/h 12.2 km/h 98% 0.0 mm
00:20 10.4 °C 10.0 °C 1034.1 hPa WSW 9.7 km/h 12.2 km/h 98% 0.0 mm
00:21 10.4 °C 10.0 °C 1034.1 hPa West 9.3 km/h 12.2 km/h 98% 0.0 mm
00:25 10.4 °C 10.0 °C 1034.1 hPa WSW 8.7 km/h 14.0 km/h 98% 0.0 mm
00:30 10.4 °C 10.0 °C 1034.1 hPa WSW 14.0 km/h 14.0 km/h 98% 0.0 mm
00:31 10.4 °C 10.0 °C 1034.1 hPa WSW 8.7 km/h 14.0 km/h 98% 0.0 mm
00:35 10.4 °C 10.0 °C 1034.1 hPa Calm   14.0 km/h 98% 0.0 mm
00:37 10.4 °C 10.0 °C 1034.1 hPa Calm   14.0 km/h 98% 0.0 mm
00:42 10.4 °C 10.0 °C 1033.1 hPa Calm   12.2 km/h 98% 0.0 mm
00:44 10.3 °C 10.0 °C 1033.1 hPa West 6.4 km/h 11.1 km/h 98% 0.0 mm
00:49 10.3 °C 10.0 °C 1033.1 hPa Calm   7.6 km/h 98% 0.0 mm
00:50 10.3 °C 10.0 °C 1033.1 hPa Calm   7.6 km/h 98% 0.0 mm
00:55 10.3 °C 10.0 °C 1034.1 hPa Calm   6.4 km/h 98% 0.0 mm
01:00 10.2 °C 10.0 °C 1034.1 hPa Calm   11.1 km/h 98% 0.0 mm
01:01 10.2 °C 10.0 °C 1034.1 hPa Calm   11.1 km/h 98% 0.0 mm
01:04 10.2 °C 10.0 °C 1034.1 hPa West 5.8 km/h 11.9 km/h 98% 0.0 mm
01:07 10.2 °C 10.0 °C 1034.1 hPa Calm   11.9 km/h 98% 0.0 mm
01:12 10.2 °C 10.0 °C 1033.1 hPa Calm   11.9 km/h 98% 0.0 mm
01:16 10.1 °C 10.0 °C 1033.1 hPa WSW 6.9 km/h 10.1 km/h 98% 0.0 mm
01:19 10.1 °C 10.0 °C 1033.1 hPa West 9.3 km/h 10.1 km/h 98% 0.0 mm
01:24 10.1 °C 10.0 °C 1033.1 hPa WSW 5.0 km/h 10.1 km/h 98% 0.0 mm
01:25 10.1 °C 10.0 °C 1034.1 hPa WSW 2.6 km/h 9.7 km/h 98% 0.0 mm
01:27 10.1 °C 10.0 °C 1034.1 hPa West 4.0 km/h 9.7 km/h 98% 0.0 mm
01:32 10.1 °C 10.0 °C 1034.1 hPa Calm   9.7 km/h 98% 0.0 mm
01:33 10.1 °C 10.0 °C 1034.1 hPa Calm   9.7 km/h 98% 0.0 mm
01:35 10.0 °C 10.0 °C 1034.1 hPa West 2.1 km/h 9.7 km/h 98% 0.0 mm
01:39 10.0 °C 10.0 °C 1034.1 hPa Calm   7.6 km/h 98% 0.0 mm
01:44 10.0 °C 10.0 °C 1033.1 hPa Calm   6.4 km/h 98% 0.0 mm
01:45 10.0 °C 10.0 °C 1033.1 hPa Calm   6.4 km/h 98% 0.0 mm
01:50 9.9 °C 10.0 °C 1033.1 hPa Calm   8.7 km/h 98% 0.0 mm
01:53 9.9 °C 10.0 °C 1033.1 hPa WSW 6.4 km/h 8.7 km/h 98% 0.0 mm
01:59 9.9 °C 10.0 °C 1033.1 hPa West 2.6 km/h 10.5 km/h 98% 0.0 mm
02:00 9.9 °C 10.0 °C 1033.1 hPa Calm   10.5 km/h 98% 0.0 mm
02:05 9.9 °C 10.0 °C 1033.1 hPa West 2.6 km/h 10.5 km/h 98% 0.0 mm
02:07 9.9 °C 10.0 °C 1033.1 hPa Calm   7.9 km/h 98% 0.0 mm
02:12 9.9 °C 10.0 °C 1033.1 hPa Calm   6.9 km/h 98% 0.0 mm
02:17 9.9 °C 10.0 °C 1033.1 hPa WSW 6.9 km/h 10.1 km/h 98% 0.0 mm
02:21 9.9 °C 10.0 °C 1033.1 hPa Calm   10.1 km/h 98% 0.0 mm
02:26 9.9 °C 10.0 °C 1033.1 hPa WSW 10.1 km/h 10.5 km/h 98% 0.0 mm
02:28 9.9 °C 10.0 °C 1033.1 hPa WSW 9.3 km/h 10.5 km/h 98% 0.0 mm
02:33 9.9 °C 10.0 °C 1033.1 hPa Calm   12.6 km/h 98% 0.0 mm
02:34 9.9 °C 10.0 °C 1033.1 hPa Calm   12.6 km/h 98% 0.0 mm
02:38 9.9 °C 10.0 °C 1033.1 hPa West 9.0 km/h 12.6 km/h 98% 0.0 mm
02:43 9.9 °C 10.0 °C 1033.1 hPa SW 9.3 km/h 9.3 km/h 98% 0.0 mm
02:44 9.9 °C 10.0 °C 1033.1 hPa West 9.0 km/h 9.3 km/h 98% 0.0 mm
02:49 9.8 °C 10.0 °C 1033.1 hPa WSW 9.0 km/h 10.5 km/h 98% 0.0 mm
02:50 9.8 °C 10.0 °C 1033.1 hPa Calm   10.5 km/h 98% 0.0 mm
02:55 9.8 °C 10.0 °C 1033.1 hPa WSW 9.7 km/h 10.5 km/h 98% 0.0 mm
02:59 9.8 °C 10.0 °C 1033.1 hPa Calm   10.5 km/h 98% 0.0 mm
03:01 9.8 °C 10.0 °C 1033.1 hPa West 10.5 km/h 10.5 km/h 98% 0.0 mm
03:04 9.8 °C 10.0 °C 1033.1 hPa West 1.4 km/h 12.2 km/h 98% 0.0 mm
03:09 9.8 °C 10.0 °C 1033.1 hPa Calm   12.2 km/h 98% 0.0 mm
03:13 9.8 °C 10.0 °C 1032.1 hPa West 7.9 km/h 11.1 km/h 98% 0.0 mm
03:17 9.8 °C 10.0 °C 1032.1 hPa Calm   10.5 km/h 98% 0.0 mm
03:18 9.8 °C 10.0 °C 1032.1 hPa WSW 7.6 km/h 10.5 km/h 98% 0.0 mm
03:23 9.8 °C 10.0 °C 1032.1 hPa Calm   9.7 km/h 98% 0.0 mm
03:25 9.8 °C 10.0 °C 1032.1 hPa WSW 7.9 km/h 9.7 km/h 98% 0.0 mm
03:30 9.8 °C 10.0 °C 1033.1 hPa Calm   10.8 km/h 98% 0.0 mm
03:31 9.8 °C 10.0 °C 1033.1 hPa Calm   10.8 km/h 98% 0.0 mm
03:36 9.8 °C 10.0 °C 1033.1 hPa West 9.7 km/h 13.0 km/h 98% 0.0 mm
03:37 9.8 °C 10.0 °C 1033.1 hPa West 6.9 km/h 13.0 km/h 98% 0.0 mm
03:38 9.8 °C 10.0 °C 1033.1 hPa West 10.8 km/h 13.0 km/h 98% 0.0 mm
03:42 9.7 °C 10.0 °C 1033.1 hPa West 9.3 km/h 13.0 km/h 98% 0.0 mm
03:47 9.7 °C 10.0 °C 1033.1 hPa West 6.4 km/h 10.8 km/h 98% 0.0 mm
03:52 9.7 °C 10.0 °C 1033.1 hPa WSW 7.9 km/h 10.5 km/h 98% 0.0 mm
03:54 9.7 °C 10.0 °C 1033.1 hPa WSW 1.4 km/h 12.2 km/h 98% 0.0 mm
03:59 9.7 °C 10.0 °C 1033.1 hPa WSW 6.4 km/h 12.2 km/h 98% 0.0 mm
04:01 9.7 °C 10.0 °C 1033.1 hPa WSW 6.9 km/h 12.2 km/h 98% 0.0 mm
04:06 9.7 °C 10.0 °C 1033.1 hPa Calm   9.7 km/h 98% 0.0 mm
04:08 9.7 °C 10.0 °C 1033.1 hPa WSW 5.0 km/h 10.1 km/h 98% 0.0 mm
04:12 9.7 °C 10.0 °C 1033.1 hPa Calm   10.5 km/h 98% 0.0 mm
04:23 9.7 °C 10.0 °C 1033.1 hPa WSW 10.8 km/h 12.2 km/h 98% 0.0 mm
04:28 9.7 °C 10.0 °C 1033.1 hPa Calm   12.2 km/h 98% 0.0 mm
04:32 9.7 °C 10.0 °C 1033.1 hPa West 4.3 km/h 12.2 km/h 98% 0.0 mm
04:37 9.7 °C 10.0 °C 1033.1 hPa WSW 9.7 km/h 10.1 km/h 98% 0.0 mm
04:42 9.7 °C 10.0 °C 1033.1 hPa West 4.0 km/h 10.5 km/h 98% 0.0 mm
04:47 9.7 °C 10.0 °C 1033.1 hPa Calm   10.5 km/h 98% 0.0 mm
04:51 9.7 °C 10.0 °C 1033.1 hPa WSW 4.0 km/h 10.5 km/h 98% 0.0 mm
04:52 9.7 °C 10.0 °C 1033.1 hPa WSW 5.8 km/h 10.5 km/h 98% 0.0 mm
04:57 9.7 °C 10.0 °C 1033.1 hPa Calm   15.1 km/h 98% 0.0 mm
04:59 9.7 °C 10.0 °C 1033.1 hPa West 6.4 km/h 15.1 km/h 98% 0.0 mm
05:05 9.6 °C 10.0 °C 1033.1 hPa West 10.1 km/h 10.5 km/h 98% 0.0 mm
05:06 9.7 °C 10.0 °C 1033.1 hPa WSW 7.9 km/h 10.5 km/h 98% 0.0 mm
05:12 9.6 °C 10.0 °C 1033.1 hPa WSW 9.3 km/h 10.1 km/h 98% 0.0 mm
05:17 9.6 °C 10.0 °C 1033.1 hPa West 6.1 km/h 10.1 km/h 98% 0.0 mm
05:20 9.6 °C 10.0 °C 1033.1 hPa West 5.8 km/h 9.7 km/h 98% 0.0 mm
05:24 9.6 °C 10.0 °C 1033.1 hPa WSW 5.5 km/h 7.9 km/h 98% 0.0 mm
05:25 9.6 °C 10.0 °C 1033.1 hPa Calm   7.9 km/h 98% 0.0 mm
05:30 9.6 °C 10.0 °C 1033.1 hPa Calm   7.9 km/h 98% 0.0 mm
05:36 9.6 °C 10.0 °C 1033.1 hPa Calm   8.7 km/h 98% 0.0 mm
05:41 9.6 °C 10.0 °C 1033.1 hPa Calm   8.7 km/h 98% 0.0 mm
05:46 9.6 °C 10.0 °C 1033.1 hPa Calm   6.9 km/h 98% 0.0 mm
05:51 9.6 °C 10.0 °C 1033.1 hPa Calm   6.9 km/h 98% 0.0 mm
05:52 9.6 °C 10.0 °C 1033.1 hPa Calm   6.9 km/h 98% 0.0 mm
05:57 9.6 °C 10.0 °C 1033.1 hPa Calm   8.7 km/h 98% 0.0 mm
06:01 9.6 °C 10.0 °C 1033.1 hPa Calm   8.7 km/h 98% 0.0 mm
06:06 9.6 °C 10.0 °C 1033.1 hPa Calm     98% 0.0 mm
06:07 9.6 °C 10.0 °C 1033.1 hPa Calm     98% 0.0 mm
06:12 9.6 °C 10.0 °C 1033.1 hPa WSW 6.1 km/h 6.4 km/h 98% 0.0 mm
06:14 9.6 °C 10.0 °C 1033.1 hPa Calm   7.2 km/h 98% 0.0 mm
06:19 9.6 °C 10.0 °C 1033.1 hPa West 5.0 km/h 9.0 km/h 98% 0.0 mm
06:21 9.6 °C 10.0 °C 1033.1 hPa Calm   9.0 km/h 98% 0.0 mm
06:29 9.5 °C 10.0 °C 1033.1 hPa Calm   6.9 km/h 98% 0.0 mm
06:34 9.5 °C 10.0 °C 1033.1 hPa Calm   5.5 km/h 98% 0.0 mm
06:36 9.5 °C 10.0 °C 1033.1 hPa Calm     98% 0.0 mm
06:41 9.5 °C 10.0 °C 1033.1 hPa Calm     98% 0.0 mm
06:46 9.5 °C 10.0 °C 1033.1 hPa West 1.8 km/h 4.0 km/h 98% 0.0 mm
06:47 9.5 °C 10.0 °C 1033.1 hPa West 1.8 km/h 4.0 km/h 98% 0.0 mm
06:52 9.5 °C 10.0 °C 1033.1 hPa Calm   8.7 km/h 98% 0.0 mm
06:53 9.5 °C 10.0 °C 1033.1 hPa Calm   8.7 km/h 98% 0.0 mm
06:59 9.5 °C 10.0 °C 1033.1 hPa Calm   5.5 km/h 98% 0.0 mm
07:04 9.5 °C 10.0 °C 1033.1 hPa Calm   3.5 km/h 98% 0.0 mm
07:11 9.5 °C 10.0 °C 1033.1 hPa Calm   5.0 km/h 98% 0.0 mm
07:12 9.5 °C 10.0 °C 1033.1 hPa Calm   5.0 km/h 98% 0.0 mm
07:16 9.4 °C 9.0 °C 1033.1 hPa Calm   5.0 km/h 98% 0.0 mm
07:17 9.4 °C 9.0 °C 1033.1 hPa Calm   5.0 km/h 98% 0.0 mm
07:22 9.4 °C 9.0 °C 1033.1 hPa Calm   2.6 km/h 98% 0.0 mm
07:24 9.4 °C 9.0 °C 1033.1 hPa Calm     98% 0.0 mm
07:27 9.4 °C 9.0 °C 1033.1 hPa Calm     98% 0.0 mm
07:31 9.4 °C 9.0 °C 1033.1 hPa Calm     98% 0.0 mm
07:36 9.4 °C 9.0 °C 1033.1 hPa Calm     98% 0.0 mm
07:41 9.3 °C 9.0 °C 1034.1 hPa Calm     98% 0.0 mm
07:42 9.3 °C 9.0 °C 1034.1 hPa Calm   1.4 km/h 98% 0.0 mm
07:48 9.3 °C 9.0 °C 1034.1 hPa West 2.1 km/h 3.2 km/h 98% 0.0 mm
07:53 9.3 °C 9.0 °C 1034.1 hPa Calm   4.0 km/h 98% 0.0 mm
07:58 9.3 °C 9.0 °C 1032.1 hPa Calm   4.0 km/h 98% 0.0 mm
08:00 9.3 °C 9.0 °C 1032.1 hPa Calm     98% 0.0 mm
08:05 9.3 °C 9.0 °C 1032.1 hPa Calm     98% 0.0 mm
08:10 9.3 °C 9.0 °C 1032.1 hPa Calm     98% 0.0 mm
08:12 9.3 °C 9.0 °C 1033.1 hPa Calm     98% 0.0 mm
08:15 9.3 °C 9.0 °C 1033.1 hPa Calm     98% 0.0 mm
08:17 9.3 °C 9.0 °C 1033.1 hPa Calm     98% 0.0 mm
08:22 9.3 °C 9.0 °C 1033.1 hPa Calm     98% 0.0 mm
08:24 9.2 °C 9.0 °C 1033.1 hPa Calm     98% 0.0 mm
08:29 9.2 °C 9.0 °C 1033.1 hPa Calm     98% 0.0 mm
08:30 9.2 °C 9.0 °C 1033.1 hPa Calm     98% 0.0 mm
08:31 9.2 °C 9.0 °C 1033.1 hPa Calm     98% 0.0 mm
08:36 9.2 °C 9.0 °C 1033.1 hPa Calm     98% 0.0 mm
08:41 9.2 °C 9.0 °C 1032.1 hPa Calm     98% 0.0 mm
08:46 9.2 °C 9.0 °C 1032.1 hPa Calm     98% 0.0 mm
08:50 9.2 °C 9.0 °C 1032.1 hPa Calm     98% 0.0 mm
08:51 9.2 °C 9.0 °C 1032.1 hPa Calm     98% 0.0 mm
08:58 9.2 °C 9.0 °C 1033.1 hPa Calm   3.2 km/h 98% 0.0 mm
08:59 9.2 °C 9.0 °C 1033.1 hPa Calm   3.2 km/h 98% 0.0 mm
09:04 9.2 °C 9.0 °C 1033.1 hPa Calm   5.0 km/h 98% 0.0 mm
09:09 9.2 °C 9.0 °C 1033.1 hPa Calm   5.0 km/h 98% 0.0 mm
09:20 9.3 °C 9.0 °C 1033.1 hPa Calm   1.8 km/h 98% 0.0 mm
09:25 9.3 °C 9.0 °C 1033.1 hPa Calm   1.8 km/h 98% 0.0 mm
09:32 9.3 °C 9.0 °C 1033.1 hPa Calm   4.0 km/h 98% 0.0 mm
09:37 9.3 °C 9.0 °C 1033.1 hPa Calm   4.0 km/h 98% 0.0 mm
09:38 9.3 °C 9.0 °C 1033.1 hPa Calm   4.0 km/h 98% 0.0 mm
09:43 9.3 °C 9.0 °C 1034.1 hPa West 1.4 km/h 1.4 km/h 98% 0.0 mm
09:47 9.3 °C 9.0 °C 1034.1 hPa Calm   5.0 km/h 98% 0.0 mm
09:52 9.3 °C 9.0 °C 1034.1 hPa Calm   5.8 km/h 98% 0.0 mm
09:53 9.3 °C 9.0 °C 1034.1 hPa Calm   5.8 km/h 98% 0.0 mm
09:59 9.4 °C 9.0 °C 1034.1 hPa Calm   5.8 km/h 98% 0.0 mm
10:04 9.4 °C 9.0 °C 1034.1 hPa Calm   4.7 km/h 98% 0.0 mm
10:09 9.4 °C 9.0 °C 1034.1 hPa Calm   6.4 km/h 98% 0.0 mm
10:10 9.4 °C 9.0 °C 1034.1 hPa Calm   6.4 km/h 98% 0.0 mm
10:15 9.4 °C 9.0 °C 1034.1 hPa Calm   6.4 km/h 98% 0.0 mm
10:17 9.4 °C 9.0 °C 1034.1 hPa NW 2.1 km/h 5.8 km/h 98% 0.0 mm
10:22 9.5 °C 10.0 °C 1034.1 hPa Calm   4.7 km/h 98% 0.0 mm
10:30 9.5 °C 10.0 °C 1035.1 hPa NNW 4.7 km/h 5.5 km/h 98% 0.0 mm
10:32 9.5 °C 10.0 °C 1035.1 hPa Calm   5.5 km/h 98% 0.0 mm
10:38 9.5 °C 10.0 °C 1035.1 hPa Calm   5.5 km/h 98% 0.0 mm
10:41 9.5 °C 10.0 °C 1035.1 hPa Calm     98% 0.0 mm
10:46 9.6 °C 10.0 °C 1035.1 hPa Calm     98% 0.0 mm
10:49 9.7 °C 10.0 °C 1035.1 hPa Calm     98% 0.0 mm
10:54 9.7 °C 10.0 °C 1035.1 hPa Calm     98% 0.0 mm
10:55 9.8 °C 10.0 °C 1035.1 hPa Calm     98% 0.0 mm
11:00 9.9 °C 10.0 °C 1034.1 hPa Calm     98% 0.0 mm
11:02 9.9 °C 10.0 °C 1034.1 hPa Calm     98% 0.0 mm
11:07 10.0 °C 10.0 °C 1034.1 hPa Calm     98% 0.0 mm
11:10 10.0 °C 10.0 °C 1034.1 hPa Calm     98% 0.0 mm
11:19 10.1 °C 10.0 °C 1035.1 hPa Calm     98% 0.0 mm
11:24 10.2 °C 10.0 °C 1035.1 hPa Calm     98% 0.0 mm
11:25 10.3 °C 10.0 °C 1035.1 hPa WNW 5.0 km/h 5.0 km/h 98% 0.0 mm
11:30 10.3 °C 10.0 °C 1035.1 hPa Calm   5.0 km/h 98% 0.0 mm
11:40 10.4 °C 10.0 °C 1035.1 hPa Calm   6.1 km/h 98% 0.0 mm
11:42 10.4 °C 10.0 °C 1035.1 hPa Calm   6.1 km/h 98% 0.0 mm
11:47 10.4 °C 10.0 °C 1035.1 hPa North 3.5 km/h 6.4 km/h 98% 0.0 mm
11:49 10.3 °C 10.0 °C 1035.1 hPa Calm   6.4 km/h 98% 0.0 mm
11:53 10.3 °C 10.0 °C 1035.1 hPa Calm   9.0 km/h 98% 0.0 mm
11:58 10.4 °C 10.0 °C 1035.1 hPa Calm   9.0 km/h 98% 0.0 mm
12:00 10.4 °C 10.0 °C 1035.1 hPa Calm   9.0 km/h 98% 0.0 mm
12:05 10.4 °C 10.0 °C 1035.1 hPa North 1.8 km/h 9.3 km/h 98% 0.0 mm
12:07 10.4 °C 10.0 °C 1035.1 hPa Calm   9.3 km/h 98% 0.0 mm
12:11 10.4 °C 10.0 °C 1035.1 hPa Calm   9.3 km/h 98% 0.0 mm
12:16 10.5 °C 11.0 °C 1035.1 hPa NNW 1.4 km/h 8.7 km/h 98% 0.0 mm
12:18 10.5 °C 11.0 °C 1035.1 hPa Calm   8.7 km/h 98% 0.0 mm
12:23 10.5 °C 11.0 °C 1035.1 hPa Calm   8.7 km/h 98% 0.0 mm
12:28 10.5 °C 11.0 °C 1035.1 hPa WNW 4.3 km/h 7.6 km/h 98% 0.0 mm
12:29 10.5 °C 11.0 °C 1035.1 hPa Calm   7.6 km/h 98% 0.0 mm
12:34 10.5 °C 11.0 °C 1035.1 hPa NNW 1.8 km/h 6.1 km/h 98% 0.0 mm
12:38 10.5 °C 11.0 °C 1035.1 hPa Calm   6.1 km/h 98% 0.0 mm
12:43 10.5 °C 11.0 °C 1035.1 hPa NW 3.2 km/h 5.8 km/h 98% 0.0 mm
12:44 10.5 °C 11.0 °C 1035.1 hPa Calm   5.8 km/h 98% 0.0 mm
12:50 10.5 °C 11.0 °C 1035.1 hPa North 3.2 km/h 5.8 km/h 98% 0.0 mm
12:53 10.5 °C 11.0 °C 1035.1 hPa NNW 6.9 km/h 6.9 km/h 98% 0.0 mm
12:59 10.5 °C 11.0 °C 1035.1 hPa Calm   8.7 km/h 98% 0.0 mm
13:04 10.5 °C 11.0 °C 1035.1 hPa Calm   8.7 km/h 98% 0.0 mm
13:05 10.4 °C 10.0 °C 1035.1 hPa Calm   8.7 km/h 98% 0.0 mm
13:08 10.4 °C 10.0 °C 1035.1 hPa Calm   6.9 km/h 98% 0.0 mm
13:12 10.5 °C 11.0 °C 1035.1 hPa Calm   6.9 km/h 98% 0.0 mm
13:17 10.5 °C 11.0 °C 1035.1 hPa West 1.4 km/h 6.1 km/h 98% 0.0 mm
13:18 10.5 °C 11.0 °C 1035.1 hPa Calm   6.1 km/h 98% 0.0 mm
13:23 10.5 °C 11.0 °C 1035.1 hPa Calm   6.1 km/h 98% 0.0 mm
13:31 10.5 °C 11.0 °C 1035.1 hPa Calm   4.7 km/h 98% 0.0 mm
13:39 10.6 °C 11.0 °C 1035.1 hPa Calm   1.8 km/h 98% 0.0 mm
13:45 10.7 °C 11.0 °C 1035.1 hPa Calm     98% 0.0 mm
13:50 10.7 °C 11.0 °C 1035.1 hPa Calm     98% 0.0 mm
13:53 10.8 °C 11.0 °C 1035.1 hPa Calm   1.4 km/h 98% 0.0 mm
13:58 10.8 °C 11.0 °C 1036.1 hPa WNW 4.7 km/h 5.0 km/h 98% 0.0 mm
13:59 10.8 °C 11.0 °C 1036.1 hPa NNW 4.3 km/h 5.0 km/h 98% 0.0 mm
14:02 10.8 °C 11.0 °C 1036.1 hPa Calm   5.0 km/h 98% 0.0 mm
14:07 10.9 °C 11.0 °C 1036.1 hPa Calm   4.7 km/h 98% 0.0 mm
14:13 11.0 °C 11.0 °C 1035.1 hPa West 1.4 km/h 6.1 km/h 98% 0.0 mm
14:18 11.0 °C 11.0 °C 1035.1 hPa Calm   6.1 km/h 98% 0.0 mm
14:22 11.1 °C 11.0 °C 1035.1 hPa Calm   6.1 km/h 98% 0.0 mm
14:27 11.2 °C 11.0 °C 1035.1 hPa Calm   6.4 km/h 98% 0.0 mm
14:28 11.2 °C 11.0 °C 1035.1 hPa Calm   6.4 km/h 98% 0.0 mm
14:32 11.3 °C 11.0 °C 1035.1 hPa Calm   6.4 km/h 98% 0.0 mm
14:37 11.3 °C 11.0 °C 1035.1 hPa Calm   5.8 km/h 98% 0.0 mm
14:38 11.3 °C 11.0 °C 1035.1 hPa Calm   5.8 km/h 98% 0.0 mm
14:42 11.2 °C 11.0 °C 1035.1 hPa WNW 1.8 km/h 5.0 km/h 98% 0.0 mm
14:44 11.2 °C 11.0 °C 1035.1 hPa Calm   5.0 km/h 98% 0.0 mm
14:49 11.2 °C 11.0 °C 1035.1 hPa Calm   5.8 km/h 98% 0.0 mm
14:50 11.2 °C 11.0 °C 1035.1 hPa Calm   5.8 km/h 98% 0.0 mm
14:55 11.2 °C 11.0 °C 1035.1 hPa Calm   5.8 km/h 98% 0.0 mm
14:56 11.2 °C 11.0 °C 1035.1 hPa WNW 3.5 km/h 5.8 km/h 98% 0.0 mm
14:59 11.1 °C 11.0 °C 1035.1 hPa Calm   4.0 km/h 98% 0.0 mm
15:04 11.1 °C 11.0 °C 1035.1 hPa West 7.2 km/h 7.2 km/h 98% 0.0 mm
15:10 11.1 °C 11.0 °C 1035.1 hPa West 1.8 km/h 7.2 km/h 98% 0.0 mm
15:12 11.0 °C 11.0 °C 1034.1 hPa Calm   7.2 km/h 98% 0.0 mm
15:17 11.0 °C 11.0 °C 1034.1 hPa Calm   5.8 km/h 98% 0.0 mm
15:19 11.0 °C 11.0 °C 1034.1 hPa West 6.4 km/h 6.4 km/h 98% 0.0 mm
15:22 11.0 °C 11.0 °C 1034.1 hPa Calm   7.6 km/h 98% 0.0 mm
15:24 10.9 °C 11.0 °C 1034.1 hPa Calm   7.6 km/h 98% 0.0 mm
15:29 10.9 °C 11.0 °C 1034.1 hPa Calm   7.6 km/h 98% 0.0 mm
15:30 10.9 °C 11.0 °C 1034.1 hPa West 3.5 km/h 7.6 km/h 98% 0.0 mm
15:36 10.8 °C 11.0 °C 1034.1 hPa Calm   6.9 km/h 98% 0.0 mm
15:39 10.8 °C 11.0 °C 1034.1 hPa Calm   6.9 km/h 98% 0.0 mm
15:41 10.8 °C 11.0 °C 1035.1 hPa Calm   6.9 km/h 98% 0.0 mm
15:46 10.7 °C 11.0 °C 1035.1 hPa Calm   6.4 km/h 98% 0.0 mm
15:50 10.7 °C 11.0 °C 1035.1 hPa Calm   6.4 km/h 98% 0.0 mm
15:51 10.7 °C 11.0 °C 1035.1 hPa Calm   6.4 km/h 98% 0.0 mm
15:56 10.7 °C 11.0 °C 1034.1 hPa West 6.9 km/h 6.9 km/h 98% 0.0 mm
15:57 10.7 °C 11.0 °C 1034.1 hPa WSW 1.8 km/h 6.9 km/h 98% 0.0 mm
15:59 10.7 °C 11.0 °C 1034.1 hPa Calm   6.9 km/h 98% 0.0 mm
16:04 10.6 °C 11.0 °C 1034.1 hPa West 6.9 km/h 7.9 km/h 98% 0.0 mm
16:06 10.6 °C 11.0 °C 1034.1 hPa WSW 4.3 km/h 7.9 km/h 98% 0.0 mm
16:08 10.6 °C 11.0 °C 1034.1 hPa WSW 3.5 km/h 7.9 km/h 98% 0.0 mm
16:12 10.6 °C 11.0 °C 1034.1 hPa Calm   7.9 km/h 98% 0.0 mm
16:17 10.6 °C 11.0 °C 1034.1 hPa Calm   4.7 km/h 98% 0.0 mm
16:20 10.6 °C 11.0 °C 1034.1 hPa Calm   4.7 km/h 98% 0.0 mm
16:22 10.6 °C 11.0 °C 1034.1 hPa Calm   4.7 km/h 98% 0.0 mm
16:27 10.5 °C 11.0 °C 1035.1 hPa West 1.4 km/h 5.0 km/h 98% 0.0 mm
16:29 10.5 °C 11.0 °C 1035.1 hPa Calm   5.0 km/h 98% 0.0 mm
16:31 10.5 °C 11.0 °C 1035.1 hPa Calm   5.0 km/h 98% 0.0 mm
16:35 10.5 °C 11.0 °C 1035.1 hPa Calm   5.0 km/h 98% 0.0 mm
16:38 10.5 °C 11.0 °C 1035.1 hPa Calm   1.4 km/h 98% 0.0 mm
16:43 10.4 °C 10.0 °C 1035.1 hPa Calm     98% 0.0 mm
16:46 10.4 °C 10.0 °C 1035.1 hPa Calm     98% 0.0 mm
16:47 10.4 °C 10.0 °C 1035.1 hPa Calm     98% 0.0 mm
16:51 10.4 °C 10.0 °C 1035.1 hPa Calm     98% 0.0 mm
16:56 10.3 °C 10.0 °C 1036.1 hPa Calm     98% 0.0 mm
17:03 10.2 °C 10.0 °C 1036.1 hPa Calm     98% 0.0 mm
17:08 10.2 °C 10.0 °C 1036.1 hPa Calm     98% 0.0 mm
17:09 10.2 °C 10.0 °C 1036.1 hPa Calm     98% 0.0 mm
17:14 10.2 °C 10.0 °C 1035.1 hPa Calm     98% 0.0 mm
17:21 10.1 °C 10.0 °C 1035.1 hPa Calm     98% 0.0 mm
17:26 10.2 °C 10.0 °C 1035.1 hPa Calm     98% 0.0 mm
17:27 10.2 °C 10.0 °C 1035.1 hPa Calm     98% 0.0 mm
17:28 10.2 °C 10.0 °C 1035.1 hPa Calm     98% 0.0 mm
17:33 10.2 °C 10.0 °C 1035.1 hPa Calm     98% 0.0 mm
17:34 10.2 °C 10.0 °C 1035.1 hPa Calm     98% 0.0 mm
17:39 10.1 °C 10.0 °C 1035.1 hPa Calm     98% 0.0 mm
17:40 10.1 °C 10.0 °C 1035.1 hPa Calm     98% 0.0 mm
17:45 10.1 °C 10.0 °C 1035.1 hPa Calm     98% 0.0 mm
17:50 10.1 °C 10.0 °C 1035.1 hPa Calm     98% 0.0 mm
17:56 10.1 °C 10.0 °C 1035.1 hPa Calm     98% 0.0 mm
17:57 10.1 °C 10.0 °C 1035.1 hPa Calm     98% 0.0 mm
18:02 10.0 °C 10.0 °C 1035.1 hPa Calm     98% 0.0 mm
18:03 10.0 °C 10.0 °C 1035.1 hPa Calm     98% 0.0 mm
18:08 10.0 °C 10.0 °C 1035.1 hPa Calm     98% 0.0 mm
18:13 10.0 °C 10.0 °C 1035.1 hPa Calm     98% 0.0 mm
18:16 10.0 °C 10.0 °C 1035.1 hPa Calm     98% 0.0 mm
18:21 10.0 °C 10.0 °C 1035.1 hPa Calm     98% 0.0 mm
18:27 9.9 °C 10.0 °C 1035.1 hPa Calm     98% 0.0 mm
18:29 9.9 °C 10.0 °C 1035.1 hPa Calm     98% 0.0 mm
18:39 9.9 °C 10.0 °C 1035.1 hPa SSE 1.4 km/h 2.6 km/h 98% 0.0 mm
18:44 9.9 °C 10.0 °C 1035.1 hPa Calm   4.0 km/h 98% 0.0 mm
18:49 10.0 °C 10.0 °C 1035.1 hPa Calm   4.0 km/h 98% 0.0 mm
18:54 10.0 °C 10.0 °C 1035.1 hPa West 4.3 km/h 4.3 km/h 98% 0.0 mm
18:55 10.0 °C 10.0 °C 1035.1 hPa Calm   4.3 km/h 98% 0.0 mm
18:56 10.0 °C 10.0 °C 1035.1 hPa Calm   4.3 km/h 98% 0.0 mm
19:01 10.0 °C 10.0 °C 1035.1 hPa Calm   4.3 km/h 98% 0.0 mm
19:05 9.9 °C 10.0 °C 1035.1 hPa Calm   2.1 km/h 98% 0.0 mm
19:13 9.8 °C 10.0 °C 1035.1 hPa Calm     98% 0.0 mm
19:14 9.8 °C 10.0 °C 1035.1 hPa Calm     98% 0.0 mm
19:19 9.8 °C 10.0 °C 1035.1 hPa Calm     98% 0.0 mm
19:24 9.8 °C 10.0 °C 1035.1 hPa Calm     98% 0.0 mm
19:26 9.8 °C 10.0 °C 1036.1 hPa Calm     98% 0.0 mm
19:33 9.8 °C 10.0 °C 1036.1 hPa Calm     98% 0.0 mm
19:38 9.8 °C 10.0 °C 1036.1 hPa Calm     98% 0.0 mm
19:40 9.8 °C 10.0 °C 1036.1 hPa Calm     98% 0.0 mm
19:48 9.8 °C 10.0 °C 1036.1 hPa Calm     98% 0.0 mm
19:53 9.7 °C 10.0 °C 1036.1 hPa Calm     98% 0.0 mm
19:58 9.7 °C 10.0 °C 1035.1 hPa Calm     98% 0.0 mm
20:00 9.6 °C 10.0 °C 1035.1 hPa Calm     98% 0.0 mm
20:03 9.6 °C 10.0 °C 1035.1 hPa Calm     98% 0.0 mm
20:08 9.6 °C 10.0 °C 1035.1 hPa Calm     98% 0.0 mm
20:09 9.6 °C 10.0 °C 1035.1 hPa Calm     98% 0.0 mm
20:14 9.7 °C 10.0 °C 1036.1 hPa Calm     98% 0.0 mm
20:16 9.7 °C 10.0 °C 1036.1 hPa Calm     98% 0.0 mm
20:19 9.7 °C 10.0 °C 1036.1 hPa Calm     98% 0.0 mm
20:22 9.7 °C 10.0 °C 1036.1 hPa Calm     98% 0.0 mm
20:27 9.7 °C 10.0 °C 1036.1 hPa Calm     98% 0.0 mm
20:28 9.7 °C 10.0 °C 1036.1 hPa Calm     98% 0.0 mm
20:33 9.7 °C 10.0 °C 1036.1 hPa Calm     98% 0.0 mm
20:41 9.6 °C 10.0 °C 1036.1 hPa Calm     98% 0.0 mm
20:42 9.6 °C 10.0 °C 1036.1 hPa Calm     98% 0.0 mm
20:47 9.5 °C 10.0 °C 1036.1 hPa Calm     98% 0.0 mm
20:48 9.5 °C 10.0 °C 1036.1 hPa Calm     98% 0.0 mm
20:49 9.5 °C 10.0 °C 1036.1 hPa Calm     98% 0.0 mm
20:59 9.5 °C 10.0 °C 1037.1 hPa Calm     98% 0.0 mm
21:04 9.5 °C 10.0 °C 1037.1 hPa Calm     98% 0.0 mm
21:06 9.5 °C 10.0 °C 1037.1 hPa Calm     98% 0.0 mm
21:11 9.5 °C 10.0 °C 1037.1 hPa Calm     98% 0.0 mm
21:16 9.6 °C 10.0 °C 1037.1 hPa Calm     98% 0.0 mm
21:18 9.6 °C 10.0 °C 1037.1 hPa Calm     98% 0.0 mm
21:22 9.6 °C 10.0 °C 1037.1 hPa Calm     98% 0.0 mm
21:25 9.6 °C 10.0 °C 1037.1 hPa Calm     98% 0.0 mm
21:29 9.6 °C 10.0 °C 1037.1 hPa Calm     98% 0.0 mm
21:34 9.6 °C 10.0 °C 1037.1 hPa Calm     98% 0.0 mm
21:39 9.6 °C 10.0 °C 1037.1 hPa Calm     98% 0.0 mm
21:41 9.6 °C 10.0 °C 1037.1 hPa Calm     98% 0.0 mm
21:46 9.6 °C 10.0 °C 1037.1 hPa Calm     98% 0.0 mm
21:49 9.6 °C 10.0 °C 1037.1 hPa Calm     98% 0.0 mm
21:50 9.6 °C 10.0 °C 1037.1 hPa Calm     98% 0.0 mm
21:55 9.5 °C 10.0 °C 1037.1 hPa Calm     98% 0.0 mm
21:58 9.5 °C 10.0 °C 1037.1 hPa Calm     98% 0.0 mm
22:01 9.5 °C 10.0 °C 1037.1 hPa Calm     98% 0.0 mm
22:06 9.4 °C 9.0 °C 1037.1 hPa Calm     98% 0.0 mm
22:07 9.4 °C 9.0 °C 1037.1 hPa Calm     98% 0.0 mm
22:14 9.4 °C 9.0 °C 1037.1 hPa Calm     98% 0.0 mm
22:19 9.4 °C 9.0 °C 1037.1 hPa Calm     98% 0.0 mm
22:21 9.4 °C 9.0 °C 1037.1 hPa Calm     98% 0.0 mm
22:26 9.4 °C 9.0 °C 1037.1 hPa Calm     98% 0.0 mm
22:27 9.4 °C 9.0 °C 1037.1 hPa Calm     98% 0.0 mm
22:32 9.4 °C 9.0 °C 1037.1 hPa Calm     98% 0.0 mm
22:34 9.4 °C 9.0 °C 1037.1 hPa Calm     98% 0.0 mm
22:43 9.4 °C 9.0 °C 1037.1 hPa Calm     98% 0.0 mm
22:49 9.4 °C 9.0 °C 1037.1 hPa Calm     98% 0.0 mm
22:51 9.4 °C 9.0 °C 1037.1 hPa Calm     98% 0.0 mm
22:56 9.3 °C 9.0 °C 1037.1 hPa Calm     98% 0.0 mm
23:00 9.3 °C 9.0 °C 1037.1 hPa Calm     98% 0.0 mm
23:01 9.3 °C 9.0 °C 1037.1 hPa Calm     98% 0.0 mm
23:06 9.3 °C 9.0 °C 1037.1 hPa Calm     98% 0.0 mm
23:07 9.3 °C 9.0 °C 1037.1 hPa Calm     98% 0.0 mm
23:12 9.2 °C 9.0 °C 1037.1 hPa Calm     98% 0.0 mm
23:18 9.2 °C 9.0 °C 1037.1 hPa Calm     98% 0.0 mm
23:19 9.1 °C 9.0 °C 1037.1 hPa Calm     98% 0.0 mm
23:26 9.1 °C 9.0 °C 1037.1 hPa Calm     98% 0.0 mm
23:29 9.1 °C 9.0 °C 1037.1 hPa Calm     98% 0.0 mm
23:32 9.1 °C 9.0 °C 1037.1 hPa Calm     98% 0.0 mm
23:34 9.1 °C 9.0 °C 1037.1 hPa Calm     98% 0.0 mm
23:39 9.1 °C 9.0 °C 1037.1 hPa Calm     98% 0.0 mm
23:49 9.0 °C 9.0 °C 1037.1 hPa Calm   3.2 km/h 98% 0.0 mm
23:51 9.0 °C 9.0 °C 1037.1 hPa Calm   3.2 km/h 98% 0.0 mm
23:56 9.1 °C 9.0 °C 1037.1 hPa Calm   3.2 km/h 98% 0.0 mm
Données Historique de Météo Turbie

Mise a jour : 20/05/2018 19:42:12
Généré par Cumulus 1.9.4 (1099)